CAPE
1879 1871 1878 2038 2532 2156 2108 1788 1634 1684 1579 1405 1053 706 513 407 350 159 117 193 173 130 141 100 77 66 129 70 15 27 1 0 5 18 3 4 73 78 24 0 0 0 0
1994 2140 2258 2018 1747 1500 1047 831 1042 1165 1077 809 606 375 355 309 307 59 166 62 121 28 1 0 16 179 69 82 0 30 10 5 8 10 2 0 10 27 9 37 1 0 1
2343 2220 1955 1774 1437 977 621 470 462 393 418 443 146 91 225 307 44 51 148 68 26 0 0 0 16 28 63 72 89 40 30 84 0 0 0 0 1 1 0 0 1 0 1
1805 1592 1449 1298 1056 650 490 393 353 257 203 186 40 154 176 53 7 57 142 115 3 0 0 0 0 0 7 37 67 54 43 9 0 0 0 0 1 1 0 0 0 1 1
1564 1409 1298 1051 737 616 488 413 179 199 171 51 25 20 33 93 137 331 256 34 0 0 0 0 0 0 0 1 46 40 12 0 0 0 0 0 0 0 0 1 0 1 1
1292 1256 1157 856 592 411 292 194 201 124 52 0 1 4 0 0 17 174 197 10 0 0 0 0 0 0 1 0 0 4 0 0 0 0 0 2 0 0 1 0 0 0 0
1173 1118 893 514 370 246 334 337 275 148 132 15 4 0 0 0 0 0 45 9 0 0 0 0 1 8 7 0 0 0 2 0 0 0 0 0 0 0 0 1 0 0 0
1015 730 416 424 419 327 270 221 245 17 40 63 50 0 0 0 1 0 0 0 0 0 0 0 0 10 1 7 1 0 0 0 0 0 0 0 0 0 0 0 0 0 1
378 253 359 390 354 189 134 160 93 31 15 33 32 0 0 0 0 1 0 0 1 0 0 1 3 9 6 0 0 0 0 1 0 0 0 0 0 0 0 0 0 0 0
154 172 412 373 312 130 62 264 69 13 48 52 75 0 0 0 0 0 0 0 0 1 0 0 0 0 2 0 0 0 0 0 0 0 0 1 0 0 0 0 0 0 0
91 104 464 440 361 278 341 126 112 128 67 63 60 0 0 0 1 1 0 0 0 0 0 0 0 2 2 0 0 0 0 0 0 0 1 1 1 1 0 0 0 0 0
142 504 543 420 482 400 214 110 107 55 33 9 0 2 0 0 1 1 0 0 0 0 0 0 1 1 2 0 0 0 0 0 0 1 1 1 1 1 0 0 0 0 0
363 372 293 270 334 135 111 149 130 66 34 4 0 6 1 0 0 1 0 0 0 0 0 1 1 1 2 0 0 0 0 0 1 1 1 1 0 0 0 0 0 0 0
305 338 336 287 260 286 196 130 113 56 69 4 4 28 4 1 1 0 0 0 1 0 1 0 0 1 0 0 0 0 0 0 0 1 1 0 0 0 0 0 0 0 0
375 401 239 208 121 0 0 0 0 0 7 15 0 8 44 9 0 0 0 0 0 0 0 0 0 0 1 0 0 0 0 0 0 0 3 0 0 0 0 0 0 0 0
413 329 260 230 0 0 0 0 1 0 2 1 6 0 0 11 0 0 0 0 0 0 0 0 0 0 0 0 1 0 0 0 0 0 0 0 0 0 0 0 0 0 0
399 227 167 328 3 0 0 0 0 0 1 1 0 0 0 1 2 0 0 0 0 0 0 1 0 0 0 0 0 2 0 0 0 0 0 0 0 0 0 0 0 0 0
423 247 327 346 221 62 1 0 0 0 0 0 0 0 1 1 2 2 0 0 0 0 0 1 1 1 1 0 0 0 0 0 0 0 0 0 0 0 0 0 0 0 0
242 106 246 280 106 59 49 0 0 1 0 2 0 0 0 1 1 2 0 0 0 0 0 0 1 0 0 0 0 0 0 0 0 0 0 0 0 0 0 0 0 0 0
1 45 74 285 17 30 7 0 0 0 0 0 1 1 0 0 0 0 0 0 0 0 0 0 0 0 0 0 0 0 0 0 0 0 0 0 0 0 0 0 0 0 0
0 0 9 133 69 54 0 0 0 0 0 0 0 0 0 0 0 0 0 5 3 0 4 0 0 0 0 0 0 0 0 0 0 0 0 1 0 0 0 0 0 0 0
0 4 10 76 94 172 85 79 0 0 0 0 0 0 0 0 0 0 0 0 4 0 1 1 0 0 0 0 0 0 1 0 1 5 16 13 5 0 0 0 0 0 17
0 6 11 38 40 102 160 222 89 0 0 0 0 0 0 0 0 0 8 5 5 4 0 0 2 0 0 0 0 0 0 0 0 0 22 20 11 8 15 12 10 12 1
0 2 37 23 75 145 318 306 367 115 0 0 0 0 0 0 2 1 0 0 0 0 0 0 0 0 0 0 0 0 0 0 0 0 0 33 52 14 22 52 53 101 123
10 12 18 1 40 159 114 366 253 57 2 0 0 0 0 0 0 0 0 0 0 0 0 0 0 0 0 0 0 0 0 0 0 0 0 0 1 0 3 12 7 21 17
0 0 0 0 5 1 0 0 0 0 0 0 0 0 0 0 0 0 0 0 0 0 0 0 0 0 0 0 0 0 0 0 0 0 0 0 0 0 0 0 0 0 0
CIN
-151 -117 -92 -50 -40 -58 -77 -131 -133 -134 -143 -109 -116 -118 -110 -125 -96 -90 -90 -66 -89 -94 -79 -75 -68 -50 -40 -54 -95 -103 -30 0 -70 -56 -82 -58 -74 -47 -77 0 0 0 0
-99 -65 -43 -54 -98 -141 -224 -260 -232 -217 -174 -157 -161 -146 -108 -119 -66 -108 -49 -67 -68 -97 -5 0 -71 -40 -56 -71 0 -87 -144 -125 -128 -90 -71 0 -80 -57 -85 -64 0 0 0
-57 -65 -59 -52 -116 -209 -243 -255 -272 -258 -206 -185 -219 -180 -98 -68 -101 -83 -47 -67 -81 0 0 0 -62 -83 -62 -72 -74 -79 -99 -82 0 0 0 0 0 0 0 0 0 0 0
-59 -68 -86 -117 -150 -216 -227 -257 -243 -240 -221 -210 -217 -116 -93 -105 -40 -77 -48 -65 -68 0 0 0 0 0 -101 -87 -62 -97 -93 -107 0 0 0 0 0 0 0 0 0 0 0
-57 -61 -90 -117 -155 -192 -214 -216 -263 -215 -203 -206 -181 -195 -160 -81 -64 -37 -59 -113 0 0 0 0 0 0 0 -133 -59 -79 -105 0 0 0 0 0 0 0 0 0 0 0 0
-71 -58 -64 -103 -175 -214 -229 -250 -218 -223 -214 0 -80 -209 -29 0 -182 -63 -74 -110 0 0 0 0 0 -93 -142 0 0 -117 -7 0 0 0 0 0 0 0 0 0 0 0 0
-59 -65 -96 -157 -182 -210 -191 -173 -162 -179 -151 -276 -170 -70 0 0 0 -112 -102 -95 0 0 0 0 -49 -80 -93 -34 0 0 -95 -35 0 0 0 0 0 0 0 0 0 0 0
-63 -93 -131 -136 -144 -166 -176 -150 -161 -239 -162 -178 -187 0 0 0 0 0 0 0 0 0 0 -10 -31 -60 -44 -64 -60 0 0 0 0 0 0 0 0 0 0 0 0 0 0
-130 -135 -140 -133 -145 -177 -158 -150 -182 -198 -225 -161 -186 0 0 0 0 0 0 0 0 0 0 -117 -102 -46 -40 0 -17 0 0 0 0 0 0 0 0 0 0 0 0 0 0
-161 -167 -129 -129 -147 -177 -195 -107 -140 -182 -103 -96 -98 0 0 0 0 0 0 0 0 0 0 0 0 0 0 -14 0 0 0 0 0 0 0 0 0 0 0 0 0 0 0
-156 -192 -111 -126 -155 -150 -107 -115 -83 -61 -66 -95 -110 0 0 0 0 0 0 0 0 0 0 0 0 0 0 0 0 0 0 0 0 0 0 0 0 0 0 0 0 0 0
-152 -86 -123 -140 -93 -102 -110 -90 -60 -64 -98 -148 0 -28 0 0 0 0 0 0 0 0 0 0 0 0 0 0 0 0 0 0 0 0 0 0 0 0 0 0 0 0 0
-143 -173 -183 -156 -126 -133 -105 -64 -55 -74 -98 -51 0 -64 0 0 0 0 0 0 0 0 0 0 0 0 0 0 0 0 0 0 0 0 0 0 0 0 0 0 0 0 0
-185 -184 -168 -162 -126 -76 -81 -63 -49 -64 -68 -39 -14 -39 -18 0 0 0 0 0 0 0 0 0 0 0 0 0 0 0 0 0 0 0 0 0 0 -3 0 0 0 0 0
-180 -154 -166 -152 -65 0 0 0 0 0 -37 -62 -13 -67 -39 -39 -17 0 0 0 0 0 0 0 0 0 0 0 0 0 0 0 0 0 0 0 0 0 0 0 0 0 0
-160 -146 -141 -119 0 0 0 0 0 0 0 -22 -59 0 0 -17 0 -7 0 0 0 0 0 0 0 0 0 0 -16 -20 0 0 0 -16 0 0 0 0 0 0 0 0 0
-148 -155 -150 -80 -135 0 0 0 0 0 0 0 0 0 0 0 0 0 0 0 0 0 0 0 0 0 0 0 -1 -32 -26 0 0 -25 0 -14 0 0 0 0 0 0 0
-140 -158 -113 -98 -118 -142 -58 0 0 0 0 0 0 0 0 0 0 0 0 0 0 0 0 0 0 0 0 0 0 -9 0 0 0 0 -2 -13 0 0 0 0 0 0 0
-141 -156 -98 -115 -118 -135 -114 0 -38 -23 0 0 0 0 0 0 0 0 0 0 0 0 -9 0 0 0 0 0 0 0 -24 0 0 0 0 0 0 0 0 0 0 0 0
-42 -107 -129 -85 -192 -136 -118 -7 0 -5 0 0 0 0 0 0 0 0 0 0 0 0 0 0 0 0 0 0 0 0 0 0 0 0 0 0 0 0 0 0 0 0 0
0 -34 -78 -132 -137 -108 0 0 0 0 0 0 0 0 0 0 0 0 0 -82 -50 0 -42 0 0 0 0 0 0 0 0 0 0 0 -3 -64 -1 0 0 0 0 0 0
-7 -82 -63 -66 -103 -87 -127 -147 0 0 0 0 0 0 0 0 0 0 0 0 -93 -7 -48 -69 0 0 0 0 0 -29 -14 0 -45 -70 -52 -49 -41 -1 0 0 0 0 -73
-4 -57 -87 -107 -105 -148 -135 -94 -144 0 0 0 0 0 0 0 0 -47 -88 -71 -31 -22 0 0 -23 0 0 0 0 0 0 0 -14 0 -59 -62 -82 -87 -120 -68 -79 -96 -45
-4 -23 -71 -134 -110 -148 -110 -109 -70 -121 0 0 0 0 0 0 -50 -4 0 0 0 0 0 0 0 0 0 0 0 0 0 0 0 0 -3 -111 -98 -86 -91 -94 -91 -77 -51
-102 -139 -78 -22 -142 -119 -148 -107 -88 -153 -129 0 0 0 0 0 0 0 0 0 0 0 0 0 0 0 0 0 0 0 0 0 0 0 -28 0 -172 0 -76 -65 -82 -72 -83
0 0 0 0 -181 -69 0 0 -110 0 0 0 0 0 0 0 0 0 0 0 0 0 0 0 0 0 0 0 0 0 0 0 0 0 0 0 0 0 0 0 0 0 0
Wind_Speed
9 8 8 7 7 10 8 9 10 10 11 10 9 8 8 8 7 6 5 6 7 6 4 5 5 3 2 2 1 2 2 3 4 3 3 4 4 5 4 5 5 6 5
10 8 8 8 10 10 10 9 10 12 11 9 9 7 8 7 7 7 6 6 6 6 6 5 4 3 3 3 2 3 3 3 4 5 3 3 4 5 7 8 6 5 5
10 9 9 11 11 12 10 9 11 9 8 8 8 8 8 8 7 6 6 6 6 6 5 4 2 3 3 2 2 3 3 3 4 5 3 2 2 3 7 7 6 6 4
9 10 12 11 11 11 8 7 8 8 8 8 7 7 7 8 8 7 6 6 6 6 6 6 4 5 2 1 2 2 3 6 6 6 5 2 2 3 5 5 5 4 5
14 12 12 10 9 10 8 7 8 7 7 7 7 6 7 7 5 7 6 8 7 6 5 5 4 5 7 3 1 2 3 6 6 6 5 3 2 4 6 2 5 5 4
15 14 12 11 10 8 7 7 7 7 7 7 7 7 8 5 6 12 9 8 7 7 6 4 3 3 3 3 2 4 6 9 6 5 3 6 3 6 6 7 8 6 3
15 14 12 11 10 8 7 7 7 7 6 10 8 9 7 6 6 8 9 6 7 6 6 5 3 3 4 3 2 4 9 10 7 7 9 7 6 5 8 9 7 4 3
16 15 13 11 9 7 8 7 7 6 7 8 8 8 7 4 5 6 5 6 6 5 5 5 4 4 4 5 3 6 8 5 5 5 7 7 7 9 10 8 10 8 7
16 14 12 13 10 8 7 7 6 7 5 5 7 8 8 5 6 6 3 6 6 6 4 3 1 4 5 7 6 9 8 6 10 11 12 13 12 12 11 10 9 10 4
13 13 15 14 12 8 8 8 4 6 5 5 6 6 8 7 6 6 5 6 6 4 4 3 6 6 5 10 10 10 9 5 9 8 7 9 10 9 6 6 11 10 6
12 11 15 13 12 9 8 7 6 6 6 6 7 6 6 7 4 4 4 5 5 4 3 3 3 8 5 8 10 9 9 9 9 8 6 6 6 6 4 5 3 10 9
10 15 15 14 10 8 11 5 7 7 7 6 6 5 4 5 7 5 7 9 7 5 4 3 4 8 5 9 9 14 16 11 7 6 6 5 6 5 4 4 5 5 2
16 16 13 12 13 11 9 7 6 6 6 5 5 6 5 4 4 6 7 8 7 4 3 6 11 9 8 8 17 16 10 8 7 6 6 4 5 5 5 5 3 2 3
16 14 12 13 10 9 6 5 6 5 6 6 5 6 6 4 4 4 4 7 10 8 7 5 6 7 7 9 8 6 6 7 7 6 5 4 5 5 4 3 5 3 2
15 12 11 10 10 8 7 4 4 3 2 6 5 6 8 7 6 9 8 5 5 6 7 3 5 4 6 7 4 7 7 6 6 6 6 6 5 4 2 3 2 2 2
14 10 9 9 8 8 8 7 13 9 5 10 12 8 2 6 15 13 11 15 14 11 4 4 4 5 7 5 6 6 6 6 6 6 6 6 4 3 3 3 2 3 3
14 11 9 9 9 9 8 8 8 7 16 16 11 9 8 11 13 13 15 14 11 7 4 4 5 5 5 4 5 6 6 5 7 7 6 5 6 5 4 4 5 4 4
13 15 10 8 9 9 9 8 8 7 6 4 11 7 11 11 12 13 14 9 3 3 5 5 5 5 5 5 5 5 6 6 5 6 5 4 3 6 5 4 4 4 4
12 9 9 9 8 9 9 9 9 8 7 6 5 7 7 9 9 9 4 3 4 4 5 4 5 6 6 5 4 4 4 5 5 4 5 5 4 3 5 4 4 5 5
9 14 10 11 8 8 9 8 8 9 9 7 6 5 4 4 4 4 2 3 3 3 5 6 5 5 5 5 4 3 4 3 3 4 5 5 5 5 4 6 5 5 5
6 6 12 11 10 8 9 8 9 9 9 8 7 9 9 7 7 6 4 3 4 4 6 6 6 6 5 5 5 4 4 4 5 5 6 7 6 7 7 5 5 5 5
7 8 10 10 8 9 9 7 10 9 9 9 8 8 10 7 7 6 5 5 5 5 5 7 7 6 5 5 5 6 5 5 5 5 6 7 6 5 6 5 5 5 8
7 9 7 5 7 9 7 9 8 8 9 9 10 10 7 4 5 5 3 1 4 7 7 6 4 5 5 6 6 5 2 1 1 3 6 7 8 7 6 6 7 6 5
7 7 6 5 8 9 8 8 8 7 10 10 7 5 4 1 5 11 9 9 11 10 10 10 10 11 8 8 7 6 5 4 4 3 5 5 5 5 7 8 8 8 8
3 4 6 5 7 9 8 10 9 9 12 12 10 9 9 9 10 11 11 10 11 12 14 11 9 13 15 15 13 12 9 5 5 5 5 8 9 9 5 4 2 1 4
11 11 8 8 10 11 11 13 14 14 13 11 11 10 10 11 11 11 11 12 12 12 13 10 13 17 16 14 14 11 10 10 12 12 10 9 10 9 8 10 12 8 8
Wind_Direction
142 144 148 172 165 160 138 145 152 150 140 146 146 145 142 137 146 153 169 169 153 166 168 181 203 197 190 194 185 162 161 130 118 39 68 20 78 129 117 101 114 112 129
145 148 157 139 135 121 113 124 129 133 139 140 138 139 133 146 156 151 153 168 159 169 177 182 212 193 214 211 176 183 161 131 117 123 62 42 65 92 114 105 104 114 119
144 135 126 134 122 112 117 124 127 128 136 127 133 148 153 152 146 162 164 169 159 170 176 154 115 155 181 169 160 181 161 127 120 127 112 60 75 91 84 70 80 72 69
124 131 125 129 115 120 132 122 123 126 130 132 150 153 144 158 164 167 163 142 134 116 112 116 108 95 110 149 1 132 134 122 116 119 107 111 83 75 87 111 89 75 91
129 132 125 119 122 126 125 128 123 124 129 129 142 155 160 162 160 162 145 142 130 123 116 123 129 124 105 89 157 72 130 121 121 123 131 134 124 135 128 117 104 105 66
133 125 129 127 118 120 121 125 126 135 131 131 103 122 110 98 136 150 138 136 139 138 152 137 143 138 130 121 167 167 125 145 135 139 139 156 133 124 133 137 134 134 106
133 129 129 124 128 134 131 127 132 129 127 122 122 109 102 105 95 105 130 141 144 156 159 155 164 175 184 171 71 162 152 153 172 149 155 158 151 147 136 140 134 115 110
130 132 138 132 129 124 130 139 115 121 119 126 122 117 117 116 101 102 94 145 148 142 140 152 175 181 199 166 142 114 103 92 151 139 144 145 137 144 148 142 125 104 98
135 146 137 134 134 133 135 121 120 111 110 114 125 125 122 124 119 106 91 104 96 98 103 90 146 217 181 168 131 99 85 61 44 84 101 110 119 126 130 127 131 132 119
143 147 145 144 142 143 134 121 118 124 130 125 121 124 131 126 121 87 98 114 118 127 110 101 31 106 109 126 132 120 112 114 108 98 97 100 112 111 119 156 147 147 134
148 146 147 144 144 140 121 125 125 130 121 120 121 129 126 130 128 93 108 124 143 139 147 140 95 103 99 110 127 131 129 122 107 111 110 110 118 115 109 111 142 152 157
123 125 135 135 132 118 125 120 124 125 120 127 124 107 98 103 118 72 119 137 157 142 169 144 123 126 113 126 117 124 125 119 121 117 122 126 128 125 125 123 131 149 139
118 123 122 128 123 126 126 124 122 122 129 136 128 123 126 117 95 80 66 107 114 93 98 120 131 130 110 109 130 134 127 121 125 127 132 125 131 134 124 116 108 97 49
118 119 121 119 117 125 117 121 139 144 149 153 151 154 141 131 131 117 112 99 98 92 108 110 131 110 90 115 128 128 129 133 137 137 139 128 126 144 148 140 157 160 156
120 124 122 118 110 94 71 38 98 75 186 163 168 156 151 157 176 161 155 145 121 129 126 119 119 112 128 139 145 125 129 132 137 136 141 148 155 143 142 150 125 128 188
128 129 131 123 123 116 115 97 50 43 15 107 136 136 88 144 151 147 132 126 135 151 113 130 120 127 135 133 125 124 133 139 144 142 148 157 160 150 155 158 137 149 182
136 141 139 137 136 131 129 126 114 53 65 49 51 92 117 137 124 128 130 134 146 136 124 129 136 134 139 137 137 146 155 155 152 154 159 166 156 172 174 161 171 188 213
144 143 149 149 148 143 146 138 134 130 115 70 34 63 86 110 120 128 134 123 116 101 135 144 147 145 143 146 140 144 141 147 157 158 162 171 159 164 184 188 191 191 212
145 148 157 153 150 146 148 149 146 139 117 119 110 63 65 91 105 120 88 114 137 137 136 143 149 152 155 151 151 149 150 157 163 150 154 168 181 176 180 199 223 230 233
140 146 145 153 146 152 149 148 141 137 136 142 131 136 149 135 135 153 177 160 163 149 156 152 156 153 154 169 161 153 152 161 173 170 176 183 188 194 209 203 211 223 229
123 132 133 145 156 162 152 152 140 143 145 149 144 160 161 148 159 174 190 187 176 185 160 165 167 175 173 162 168 172 176 185 186 207 184 187 181 196 222 214 218 230 239
124 142 145 156 162 166 156 139 148 151 152 142 143 164 174 164 182 186 191 201 208 195 174 166 168 173 165 171 181 198 199 202 200 199 185 187 189 199 207 216 221 231 242
137 153 161 153 165 147 142 144 144 148 156 144 150 163 183 205 194 180 172 346 61 53 54 50 62 72 63 45 38 27 44 18 359 232 198 196 199 205 210 219 233 241 239
150 159 159 147 161 156 155 146 154 144 145 131 119 124 145 198 39 88 82 72 73 73 70 66 62 61 58 53 38 35 25 359 327 320 313 215 218 213 215 224 233 250 261
172 135 124 126 151 167 155 143 137 121 107 107 103 101 99 96 88 86 85 79 78 75 69 64 64 63 59 58 49 33 1 333 357 327 5 36 54 38 56 73 58 11 44
67 62 65 66 80 88 94 98 97 98 98 96 94 84 80 86 82 85 85 86 85 80 80 71 67 66 60 50 45 25 10 28 45 41 55 57 56 39 41 41 35 34 30